| time (UTC) | temp F | wind direction | speed MPH | gust MPH | rain 1hr in | rain 24hr in | rain mn in | humidity % | barometer mb |
| 20260906012610 | 73 | 90 | 5.0 | 8.0 | 0.00 | 0.00 | 0.00 | 88 | 1016.1 |
| 20260906012105 | 73 | 82 | 3.0 | 5.0 | 0.00 | 0.00 | 0.00 | 88 | 1015.7 |
| 20260906011601 | 74 | 97 | 4.0 | 5.0 | 0.00 | 0.00 | 0.00 | 88 | 1015.7 |
| 20260906011100 | 74 | 76 | 3.0 | 5.0 | 0.00 | 0.00 | 0.00 | 88 | 1015.4 |
| 20260906010556 | 74 | 90 | 5.0 | 7.0 | 0.00 | 0.00 | 0.00 | 90 | 1015.4 |
| 20260906010052 | 74 | 83 | 4.0 | 6.0 | 0.00 | 0.00 | 0.00 | 89 | 1015.4 |
| 20260906005551 | 74 | 92 | 5.0 | 7.0 | 0.00 | 0.00 | 0.00 | 90 | 1015.4 |
| 20260906005050 | 74 | 84 | 4.0 | 6.0 | 0.00 | 0.00 | 0.00 | 90 | 1015.0 |
| 20260906004550 | 74 | 94 | 7.0 | 8.0 | 0.00 | 0.00 | 0.00 | 90 | 1014.7 |
| 20260906004045 | 74 | 89 | 2.0 | 2.0 | 0.00 | 0.00 | 0.00 | 90 | 1015.0 |
| 20260906003540 | 74 | 118 | 3.0 | 3.0 | 0.00 | 0.00 | 0.00 | 90 | 1014.7 |
| 20260906003036 | 74 | 89 | 2.0 | 2.0 | 0.00 | 0.00 | 0.00 | 90 | 1014.7 |
| 20260906002531 | 74 | 104 | 2.0 | 5.0 | 0.00 | 0.00 | 0.00 | 89 | 1014.7 |
| 20260906002025 | 74 | 95 | 6.0 | 7.0 | 0.00 | 0.00 | 0.00 | 89 | 1014.7 |
| 20260906001521 | 75 | 102 | 2.0 | 3.0 | 0.00 | 0.00 | 0.00 | 89 | 1014.7 |
| 20260906001021 | 75 | 114 | 4.0 | 5.0 | 0.00 | 0.00 | 0.00 | 88 | 1014.7 |
| 20260906000517 | 75 | 92 | 3.0 | 3.0 | 0.00 | 0.00 | 0.00 | 88 | 1015.0 |
| 20260906000012 | 76 | 100 | 2.0 | 2.0 | 0.00 | 0.00 | 0.00 | 88 | 1014.7 |
| 20260905235511 | 76 | 107 | 2.0 | 2.0 | 0.00 | 0.00 | 0.00 | 87 | 1014.7 |
| 20260905235007 | 76 | 93 | 2.0 | 3.0 | 0.00 | 0.00 | 0.00 | 87 | 1014.7 |
| 20260905234503 | 77 | 99 | 2.0 | 3.0 | 0.00 | 0.00 | 0.00 | 86 | 1015.0 |
| 20260905234002 | 77 | 114 | 5.0 | 6.0 | 0.00 | 0.00 | 0.00 | 86 | 1014.7 |
| 20260905233458 | 77 | 95 | 3.0 | 5.0 | 0.00 | 0.00 | 0.00 | 86 | 1014.7 |
| 20260905232956 | 78 | 79 | 3.0 | 3.0 | 0.00 | 0.00 | 0.00 | 85 | 1014.7 |
| 20260905232453 | 78 | 93 | 3.0 | 3.0 | 0.00 | 0.00 | 0.00 | 84 | 1014.7 |
| 20260905231948 | 78 | 78 | 4.0 | 6.0 | 0.00 | 0.00 | 0.00 | 84 | 1014.4 |
| 20260905231444 | 78 | 103 | 2.0 | 6.0 | 0.00 | 0.00 | 0.00 | 84 | 1014.4 |
| 20260905230940 | 79 | 113 | 2.0 | 5.0 | 0.00 | 0.00 | 0.00 | 83 | 1014.4 |
| 20260905230438 | 79 | 67 | 3.0 | 5.0 | 0.00 | 0.00 | 0.00 | 83 | 1014.0 |
| 20260905225937 | 79 | 98 | 3.0 | 5.0 | 0.00 | 0.00 | 0.00 | 82 | 1014.4 |
| 20260905225432 | 79 | 98 | 2.0 | 2.0 | 0.00 | 0.00 | 0.00 | 82 | 1014.4 |
| 20260905224927 | 80 | 81 | 5.0 | 8.0 | 0.00 | 0.00 | 0.00 | 81 | 1014.4 |
| 20260905224423 | 80 | 112 | 3.0 | 5.0 | 0.00 | 0.00 | 0.00 | 81 | 1014.0 |
| 20260905223922 | 81 | 56 | 3.0 | 5.0 | 0.00 | 0.00 | 0.00 | 80 | 1014.4 |
| 20260905223421 | 81 | 115 | 3.0 | 3.0 | 0.00 | 0.00 | 0.00 | 80 | 1013.7 |
| 20260905222920 | 80 | 92 | 3.0 | 3.0 | 0.00 | 0.00 | 0.00 | 81 | 1014.4 |
| 20260905222420 | 81 | 114 | 6.0 | 9.0 | 0.00 | 0.00 | 0.00 | 80 | 1014.4 |
| 20260905221916 | 81 | 88 | 2.0 | 2.0 | 0.00 | 0.00 | 0.00 | 80 | 1014.0 |
| 20260905221412 | 81 | 100 | 4.0 | 6.0 | 0.00 | 0.00 | 0.00 | 80 | 1014.4 |
| 20260905220908 | 81 | 100 | 6.0 | 8.0 | 0.00 | 0.00 | 0.00 | 80 | 1014.4 |
| 20260905220404 | 80 | 91 | 3.0 | 5.0 | 0.00 | 0.00 | 0.00 | 82 | 1014.0 |
| 20260905215903 | 81 | 97 | 4.0 | 6.0 | 0.00 | 0.00 | 0.00 | 81 | 1014.0 |
| 20260905215359 | 81 | 108 | 6.0 | 8.0 | 0.00 | 0.00 | 0.00 | 80 | 1014.0 |
| 20260905214855 | 83 | 93 | 3.0 | 5.0 | 0.00 | 0.00 | 0.00 | 78 | 1014.0 |
| 20260905214350 | 83 | 110 | 3.0 | 3.0 | 0.00 | 0.00 | 0.00 | 78 | 1014.0 |
| 20260905213845 | 83 | 95 | 4.0 | 5.0 | 0.00 | 0.00 | 0.00 | 78 | 1013.7 |
| 20260905213342 | 83 | 112 | 5.0 | 6.0 | 0.00 | 0.00 | 0.00 | 77 | 1013.7 |
| 20260905212841 | 83 | 102 | 3.0 | 5.0 | 0.00 | 0.00 | 0.00 | 77 | 1013.7 |
| 20260905212336 | 83 | 95 | 5.0 | 6.0 | 0.00 | 0.00 | 0.00 | 77 | 1014.0 |
| 20260905211835 | 84 | 91 | 4.0 | 6.0 | 0.00 | 0.00 | 0.00 | 76 | 1013.7 |
| 20260905211332 | 84 | 101 | 5.0 | 7.0 | 0.00 | 0.00 | 0.00 | 76 | 1013.7 |
| 20260905210828 | 84 | 97 | 4.0 | 5.0 | 0.00 | 0.00 | 0.00 | 76 | 1013.7 |
| 20260905210327 | 84 | 83 | 7.0 | 9.0 | 0.00 | 0.00 | 0.00 | 75 | 1013.7 |
| 20260905205826 | 84 | 106 | 3.0 | 5.0 | 0.00 | 0.00 | 0.00 | 75 | 1014.0 |
| 20260905205321 | 83 | 76 | 7.0 | 9.0 | 0.00 | 0.00 | 0.00 | 76 | 1013.7 |
| 20260905204820 | 84 | 80 | 3.0 | 5.0 | 0.00 | 0.00 | 0.00 | 76 | 1013.7 |
| 20260905204317 | 85 | 44 | 4.0 | 6.0 | 0.00 | 0.00 | 0.00 | 75 | 1014.0 |
| 20260905203815 | 84 | 62 | 4.0 | 6.0 | 0.00 | 0.00 | 0.00 | 76 | 1013.7 |
| 20260905203312 | 84 | 106 | 4.0 | 5.0 | 0.00 | 0.00 | 0.00 | 76 | 1014.0 |
| 20260905202807 | 84 | 107 | 3.0 | 8.0 | 0.00 | 0.00 | 0.00 | 76 | 1013.7 |
| 20260905202302 | 85 | 116 | 4.0 | 6.0 | 0.00 | 0.00 | 0.00 | 76 | 1014.0 |
| 20260905201758 | 84 | 103 | 5.0 | 7.0 | 0.00 | 0.00 | 0.00 | 76 | 1014.0 |
| 20260905200753 | 86 | 116 | 4.0 | 6.0 | 0.00 | 0.00 | 0.00 | 74 | 1013.7 |
| 20260905200249 | 86 | 78 | 1.0 | 1.0 | 0.00 | 0.00 | 0.00 | 74 | 1013.7 |
| 20260905195746 | 85 | 107 | 2.0 | 3.0 | 0.00 | 0.00 | 0.00 | 73 | 1013.7 |
| 20260905195242 | 86 | 101 | 2.0 | 3.0 | 0.00 | 0.00 | 0.00 | 74 | 1013.7 |
| 20260905194737 | 86 | 120 | 3.0 | 5.0 | 0.00 | 0.00 | 0.00 | 73 | 1013.7 |
| 20260905194237 | 86 | 101 | 4.0 | 5.0 | 0.00 | 0.00 | 0.00 | 74 | 1013.7 |
| 20260905193736 | 85 | 102 | 3.0 | 3.0 | 0.00 | 0.00 | 0.00 | 75 | 1013.7 |
| 20260905193231 | 87 | 105 | 3.0 | 6.0 | 0.00 | 0.00 | 0.00 | 72 | 1013.7 |
| 20260905192727 | 88 | 132 | 5.0 | 6.0 | 0.00 | 0.00 | 0.00 | 71 | 1013.7 |
| 20260905192223 | 87 | 199 | 5.0 | 7.0 | 0.00 | 0.00 | 0.00 | 72 | 1013.7 |
| 20260905191722 | 89 | 149 | 0.0 | 1.0 | 0.00 | 0.00 | 0.00 | 72 | 1014.0 |
| 20260905191220 | 89 | 83 | 3.0 | 3.0 | 0.00 | 0.00 | 0.00 | 71 | 1013.7 |
| 20260905190720 | 87 | 156 | 5.0 | 7.0 | 0.00 | 0.00 | 0.00 | 72 | 1013.7 |
| 20260905190218 | 87 | 105 | 4.0 | 6.0 | 0.00 | 0.00 | 0.00 | 72 | 1013.7 |
| 20260905185718 | 87 | 75 | 4.0 | 6.0 | 0.00 | 0.00 | 0.00 | 74 | 1014.0 |
| 20260905185213 | 87 | 95 | 3.0 | 5.0 | 0.00 | 0.00 | 0.00 | 75 | 1013.7 |
| 20260905184707 | 87 | 99 | 2.0 | 2.0 | 0.00 | 0.00 | 0.00 | 74 | 1014.0 |
| 20260905184206 | 87 | 76 | 9.0 | 11.0 | 0.00 | 0.00 | 0.00 | 74 | 1013.7 |
| 20260905183706 | 87 | 106 | 3.0 | 3.0 | 0.00 | 0.00 | 0.00 | 74 | 1013.7 |
| 20260905183201 | 87 | 96 | 5.0 | 7.0 | 0.00 | 0.00 | 0.00 | 75 | 1014.0 |
| 20260905182701 | 88 | 101 | 3.0 | 3.0 | 0.00 | 0.00 | 0.00 | 75 | 1014.0 |
| 20260905182200 | 87 | 83 | 5.0 | 7.0 | 0.00 | 0.00 | 0.00 | 75 | 1014.0 |
| 20260905181656 | 87 | 88 | 7.0 | 9.0 | 0.00 | 0.00 | 0.00 | 77 | 1013.7 |
| 20260905181155 | 87 | 100 | 4.0 | 6.0 | 0.00 | 0.00 | 0.00 | 78 | 1014.0 |
| 20260905180649 | 87 | 82 | 7.0 | 8.0 | 0.00 | 0.00 | 0.00 | 75 | 1014.0 |
| 20260905180145 | 87 | 95 | 1.0 | 2.0 | 0.00 | 0.00 | 0.00 | 76 | 1014.0 |
| 20260905175644 | 88 | 103 | 3.0 | 3.0 | 0.00 | 0.00 | 0.00 | 77 | 1014.0 |
| 20260905175139 | 87 | 109 | 2.0 | 3.0 | 0.00 | 0.00 | 0.00 | 76 | 1014.0 |
| 20260905174635 | 88 | 141 | 2.0 | 2.0 | 0.00 | 0.00 | 0.00 | 74 | 1014.0 |
| 20260905174130 | 87 | 89 | 5.0 | 6.0 | 0.00 | 0.00 | 0.00 | 77 | 1014.0 |
| 20260905173626 | 87 | 74 | 3.0 | 5.0 | 0.00 | 0.00 | 0.00 | 78 | 1013.7 |
| 20260905173122 | 87 | 95 | 1.0 | 2.0 | 0.00 | 0.00 | 0.00 | 78 | 1014.0 |
| 20260905172621 | 87 | 117 | 1.0 | 2.0 | 0.00 | 0.00 | 0.00 | 78 | 1014.4 |
| 20260905172116 | 86 | 89 | 4.0 | 6.0 | 0.00 | 0.00 | 0.00 | 80 | 1014.0 |
| 20260905171612 | 88 | 77 | 1.0 | 2.0 | 0.00 | 0.00 | 0.00 | 78 | 1014.0 |
| 20260905171108 | 87 | 116 | 1.0 | 2.0 | 0.00 | 0.00 | 0.00 | 76 | 1014.0 |
| 20260905170604 | 87 | 81 | 7.0 | 8.0 | 0.00 | 0.00 | 0.00 | 77 | 1014.0 |
| 20260905170100 | 88 | 99 | 3.0 | 6.0 | 0.00 | 0.00 | 0.00 | 77 | 1014.0 |
| 20260905165600 | 87 | 117 | 3.0 | 5.0 | 0.00 | 0.00 | 0.00 | 77 | 1014.0 |
| 20260905165055 | 86 | 113 | 3.0 | 5.0 | 0.00 | 0.00 | 0.00 | 80 | 1014.4 |
| 20260905164549 | 87 | 95 | 3.0 | 9.0 | 0.00 | 0.00 | 0.00 | 79 | 1014.4 |
| 20260905164044 | 87 | 80 | 5.0 | 6.0 | 0.00 | 0.00 | 0.00 | 79 | 1014.4 |
| 20260905163540 | 87 | 91 | 3.0 | 5.0 | 0.00 | 0.00 | 0.00 | 81 | 1014.0 |
| 20260905163036 | 88 | 100 | 6.0 | 7.0 | 0.00 | 0.00 | 0.00 | 80 | 1014.7 |
| 20260905162532 | 88 | 98 | 5.0 | 7.0 | 0.00 | 0.00 | 0.00 | 79 | 1014.4 |
| 20260905162026 | 88 | 112 | 5.0 | 6.0 | 0.00 | 0.00 | 0.00 | 77 | 1014.4 |
| 20260905161526 | 88 | 221 | 4.0 | 6.0 | 0.00 | 0.00 | 0.00 | 77 | 1014.4 |
| 20260905161024 | 87 | 95 | 3.0 | 3.0 | 0.00 | 0.00 | 0.00 | 79 | 1014.4 |
| 20260905160523 | 86 | 112 | 4.0 | 6.0 | 0.00 | 0.00 | 0.00 | 81 | 1014.4 |
| 20260905160017 | 86 | 93 | 4.0 | 5.0 | 0.00 | 0.00 | 0.00 | 81 | 1014.0 |
| 20260905155517 | 86 | 94 | 2.0 | 2.0 | 0.00 | 0.00 | 0.00 | 82 | 1014.0 |
| 20260905155015 | 87 | 104 | 1.0 | 2.0 | 0.00 | 0.00 | 0.00 | 79 | 1014.0 |
| 20260905154511 | 86 | 108 | 2.0 | 3.0 | 0.00 | 0.00 | 0.00 | 82 | 1014.0 |
| 20260905154007 | 86 | 80 | 4.0 | 5.0 | 0.00 | 0.00 | 0.00 | 83 | 1014.4 |
| 20260905153503 | 86 | 108 | 5.0 | 6.0 | 0.00 | 0.00 | 0.00 | 83 | 1014.0 |
| 20260905153002 | 87 | 100 | 5.0 | 7.0 | 0.00 | 0.00 | 0.00 | 83 | 1014.0 |
| 20260905152502 | 86 | 60 | 1.0 | 2.0 | 0.00 | 0.00 | 0.00 | 82 | 1014.0 |
| 20260905151957 | 86 | 95 | 1.0 | 1.0 | 0.00 | 0.00 | 0.00 | 84 | 1014.0 |
| 20260905151453 | 86 | 91 | 6.0 | 8.0 | 0.00 | 0.00 | 0.00 | 84 | 1013.7 |
| 20260905150953 | 86 | 79 | 3.0 | 5.0 | 0.00 | 0.00 | 0.00 | 84 | 1013.7 |
| 20260905150448 | 84 | 101 | 5.0 | 8.0 | 0.00 | 0.00 | 0.00 | 86 | 1013.7 |
| 20260905145944 | 86 | 25 | 5.0 | 7.0 | 0.00 | 0.00 | 0.00 | 85 | 1013.7 |
| 20260905145439 | 86 | 81 | 1.0 | 1.0 | 0.00 | 0.00 | 0.00 | 83 | 1013.7 |
| 20260905144938 | 86 | 96 | 2.0 | 2.0 | 0.00 | 0.00 | 0.00 | 84 | 1013.7 |
| 20260905144434 | 86 | 41 | 2.0 | 5.0 | 0.00 | 0.00 | 0.00 | 84 | 1013.7 |
| 20260905143932 | 86 | 70 | 3.0 | 3.0 | 0.00 | 0.00 | 0.00 | 84 | 1013.7 |
| 20260905143427 | 84 | 92 | 3.0 | 3.0 | 0.00 | 0.00 | 0.00 | 85 | 1013.7 |
| 20260905142926 | 84 | 74 | 3.0 | 5.0 | 0.00 | 0.00 | 0.00 | 86 | 1013.7 |
| 20260905142425 | 83 | 67 | 4.0 | 6.0 | 0.00 | 0.00 | 0.00 | 87 | 1013.3 |
| 20260905141921 | 84 | 81 | 3.0 | 3.0 | 0.00 | 0.00 | 0.00 | 86 | 1013.3 |
| 20260905141416 | 83 | 77 | 2.0 | 2.0 | 0.00 | 0.00 | 0.00 | 87 | 1013.7 |
| 20260905140912 | 83 | 24 | 4.0 | 5.0 | 0.00 | 0.00 | 0.00 | 87 | 1013.7 |
| 20260905140407 | 83 | 64 | 2.0 | 3.0 | 0.00 | 0.00 | 0.00 | 87 | 1013.7 |
| 20260905135906 | 83 | 72 | 2.0 | 3.0 | 0.00 | 0.00 | 0.00 | 87 | 1013.7 |
| 20260905135402 | 83 | 63 | 4.0 | 6.0 | 0.00 | 0.00 | 0.00 | 86 | 1014.0 |
| 20260905134858 | 83 | 42 | 4.0 | 7.0 | 0.00 | 0.00 | 0.00 | 87 | 1014.4 |
| 20260905134356 | 84 | 71 | 7.0 | 8.0 | 0.00 | 0.00 | 0.00 | 85 | 1014.0 |
| 20260905133850 | 84 | 33 | 5.0 | 6.0 | 0.00 | 0.00 | 0.00 | 84 | 1014.0 |
| 20260905133346 | 84 | 30 | 5.0 | 5.0 | 0.00 | 0.00 | 0.00 | 83 | 1013.7 |
| 20260905132845 | 84 | 8 | 3.0 | 3.0 | 0.00 | 0.00 | 0.00 | 83 | 1013.7 |
| 20260905132341 | 84 | 33 | 4.0 | 5.0 | 0.00 | 0.00 | 0.00 | 83 | 1013.7 |
| 20260905131840 | 83 | 30 | 4.0 | 6.0 | 0.00 | 0.00 | 0.00 | 84 | 1013.3 |
| 20260905131336 | 82 | 1 | 4.0 | 5.0 | 0.00 | 0.00 | 0.00 | 86 | 1013.7 |
| 20260905130831 | 82 | 11 | 2.0 | 3.0 | 0.00 | 0.00 | 0.00 | 88 | 1013.3 |
| 20260905130330 | 81 | 11 | 2.0 | 2.0 | 0.00 | 0.00 | 0.00 | 89 | 1013.3 |
| 20260905125825 | 81 | 11 | 0.0 | 1.0 | 0.00 | 0.00 | 0.00 | 90 | 1013.3 |
| 20260905125320 | 81 | 11 | 3.0 | 3.0 | 0.00 | 0.00 | 0.00 | 90 | 1013.3 |
| 20260905124816 | 81 | 13 | 1.0 | 2.0 | 0.00 | 0.00 | 0.00 | 90 | 1013.0 |
| 20260905124312 | 81 | 13 | 2.0 | 2.0 | 0.00 | 0.00 | 0.00 | 90 | 1013.0 |
| 20260905123807 | 80 | 13 | 0.0 | 1.0 | 0.00 | 0.00 | 0.00 | 91 | 1013.3 |
| 20260905123304 | 80 | 13 | 1.0 | 1.0 | 0.00 | 0.00 | 0.00 | 91 | 1013.0 |
| 20260905122803 | 80 | 14 | 3.0 | 3.0 | 0.00 | 0.00 | 0.00 | 92 | 1013.0 |
| 20260905122306 | 79 | 67 | 1.0 | 1.0 | 0.00 | 0.00 | 0.00 | 93 | 1013.3 |
| 20260905121759 | 79 | 67 | 1.0 | 1.0 | 0.00 | 0.00 | 0.00 | 95 | 1013.0 |
| 20260905121255 | 78 | 67 | 0.0 | 0.0 | 0.00 | 0.00 | 0.00 | 96 | 1013.0 |
| 20260905120753 | 77 | 67 | 1.0 | 1.0 | 0.00 | 0.00 | 0.00 | 96 | 1013.0 |
| 20260905120253 | 77 | 67 | 1.0 | 1.0 | 0.00 | 0.00 | 0.00 | 96 | 1013.0 |
| 20260905115749 | 77 | 67 | 0.0 | 0.0 | 0.00 | 0.00 | 0.00 | 96 | 1012.7 |
| 20260905115248 | 77 | 67 | 0.0 | 0.0 | 0.00 | 0.00 | 0.00 | 96 | 1013.0 |
| 20260905114748 | 78 | 67 | 0.0 | 1.0 | 0.00 | 0.00 | 0.00 | 96 | 1012.7 |
| 20260905114247 | 78 | 67 | 0.0 | 0.0 | 0.00 | 0.00 | 0.00 | 96 | 1013.0 |
| 20260905113746 | 78 | 67 | 0.0 | 0.0 | 0.00 | 0.00 | 0.00 | 96 | 1013.0 |
| 20260905113242 | 78 | 67 | 0.0 | 0.0 | 0.00 | 0.00 | 0.00 | 96 | 1013.0 |
| 20260905112738 | 78 | 67 | 0.0 | 1.0 | 0.00 | 0.00 | 0.00 | 96 | 1012.7 |
| 20260905112238 | 78 | 67 | 0.0 | 0.0 | 0.00 | 0.00 | 0.00 | 96 | 1013.0 |
| 20260905111733 | 78 | 67 | 0.0 | 0.0 | 0.00 | 0.00 | 0.00 | 96 | 1012.7 |
| 20260905111227 | 77 | 67 | 1.0 | 1.0 | 0.00 | 0.00 | 0.00 | 96 | 1013.0 |
| 20260905110726 | 77 | 67 | 0.0 | 0.0 | 0.00 | 0.00 | 0.00 | 95 | 1012.7 |
| 20260905110221 | 78 | 67 | 0.0 | 0.0 | 0.00 | 0.00 | 0.00 | 95 | 1012.7 |
| 20260905105716 | 78 | 67 | 0.0 | 0.0 | 0.00 | 0.00 | 0.00 | 95 | 1012.7 |
| 20260905105215 | 78 | 67 | 0.0 | 0.0 | 0.00 | 0.00 | 0.00 | 95 | 1012.7 |
| 20260905104710 | 78 | 67 | 0.0 | 0.0 | 0.00 | 0.00 | 0.00 | 95 | 1012.7 |
| 20260905104206 | 78 | 67 | 0.0 | 0.0 | 0.00 | 0.00 | 0.00 | 95 | 1012.7 |
| 20260905103701 | 78 | 67 | 0.0 | 0.0 | 0.00 | 0.00 | 0.00 | 95 | 1012.7 |
| 20260905103157 | 78 | 67 | 0.0 | 0.0 | 0.00 | 0.00 | 0.00 | 94 | 1012.7 |
| 20260905102652 | 78 | 67 | 0.0 | 0.0 | 0.00 | 0.00 | 0.00 | 94 | 1013.0 |
| 20260905102149 | 78 | 67 | 0.0 | 0.0 | 0.00 | 0.00 | 0.00 | 94 | 1012.7 |
| 20260905101647 | 78 | 67 | 1.0 | 1.0 | 0.00 | 0.00 | 0.00 | 93 | 1012.7 |
| 20260905101146 | 78 | 67 | 1.0 | 1.0 | 0.00 | 0.00 | 0.00 | 93 | 1013.0 |
| 20260905100642 | 78 | 67 | 1.0 | 1.0 | 0.00 | 0.00 | 0.00 | 92 | 1012.7 |
| 20260905100137 | 79 | 67 | 0.0 | 0.0 | 0.00 | 0.00 | 0.00 | 92 | 1012.7 |
| 20260905095637 | 79 | 67 | 0.0 | 1.0 | 0.00 | 0.00 | 0.00 | 91 | 1013.0 |
| 20260905095137 | 79 | 68 | 1.0 | 2.0 | 0.00 | 0.00 | 0.00 | 91 | 1012.7 |
| 20260905094632 | 80 | 68 | 3.0 | 3.0 | 0.00 | 0.00 | 0.00 | 90 | 1013.0 |
| 20260905094131 | 80 | 70 | 1.0 | 1.0 | 0.00 | 0.00 | 0.00 | 89 | 1012.7 |
| 20260905093626 | 80 | 84 | 1.0 | 1.0 | 0.00 | 0.00 | 0.00 | 88 | 1012.7 |
| 20260905093123 | 81 | 76 | 3.0 | 5.0 | 0.00 | 0.00 | 0.00 | 87 | 1012.7 |
| 20260905092622 | 81 | 358 | 1.0 | 1.0 | 0.00 | 0.00 | 0.00 | 86 | 1012.7 |
| 20260905092118 | 81 | 357 | 3.0 | 5.0 | 0.00 | 0.00 | 0.00 | 86 | 1012.3 |
| 20260905091617 | 81 | 358 | 3.0 | 6.0 | 0.00 | 0.00 | 0.00 | 86 | 1012.7 |
| 20260905091112 | 81 | 353 | 3.0 | 3.0 | 0.00 | 0.00 | 0.00 | 86 | 1012.7 |
| 20260905090606 | 81 | 359 | 3.0 | 3.0 | 0.00 | 0.00 | 0.00 | 85 | 1012.7 |
| 20260905085600 | 81 | 359 | 1.0 | 2.0 | 0.00 | 0.00 | 0.00 | 86 | 1012.7 |
| 20260905085056 | 81 | 359 | 2.0 | 2.0 | 0.00 | 0.00 | 0.00 | 85 | 1012.7 |
| 20260905084556 | 81 | 359 | 2.0 | 2.0 | 0.00 | 0.00 | 0.00 | 85 | 1012.7 |
| 20260905084051 | 82 | 359 | 3.0 | 3.0 | 0.00 | 0.00 | 0.00 | 85 | 1012.7 |
| 20260905083550 | 82 | 359 | 2.0 | 2.0 | 0.00 | 0.00 | 0.00 | 85 | 1012.7 |
| 20260905083048 | 82 | 0 | 3.0 | 3.0 | 0.00 | 0.00 | 0.00 | 85 | 1012.7 |
| 20260905082542 | 82 | 0 | 2.0 | 2.0 | 0.00 | 0.00 | 0.00 | 84 | 1012.3 |
| 20260905082038 | 82 | 1 | 3.0 | 3.0 | 0.00 | 0.00 | 0.00 | 84 | 1012.7 |
| 20260905081537 | 82 | 0 | 3.0 | 3.0 | 0.00 | 0.00 | 0.00 | 84 | 1012.3 |
| 20260905081033 | 82 | 9 | 4.0 | 5.0 | 0.00 | 0.00 | 0.00 | 84 | 1012.7 |
| 20260905080533 | 82 | 356 | 3.0 | 3.0 | 0.00 | 0.00 | 0.00 | 84 | 1012.7 |
| 20260905080028 | 82 | 1 | 3.0 | 3.0 | 0.00 | 0.00 | 0.00 | 84 | 1012.3 |
| 20260905075527 | 82 | 0 | 4.0 | 6.0 | 0.00 | 0.00 | 0.00 | 84 | 1012.7 |
| 20260905075027 | 82 | 359 | 2.0 | 2.0 | 0.00 | 0.00 | 0.00 | 85 | 1012.7 |
| 20260905074521 | 82 | 357 | 5.0 | 7.0 | 0.00 | 0.00 | 0.00 | 85 | 1012.3 |
| 20260905074017 | 82 | 1 | 3.0 | 5.0 | 0.00 | 0.00 | 0.00 | 85 | 1012.7 |
| 20260905073512 | 82 | 3 | 2.0 | 2.0 | 0.00 | 0.00 | 0.00 | 85 | 1012.3 |
| 20260905073008 | 82 | 8 | 4.0 | 5.0 | 0.00 | 0.00 | 0.00 | 85 | 1012.3 |
| 20260905072501 | 82 | 15 | 4.0 | 6.0 | 0.00 | 0.00 | 0.00 | 86 | 1012.3 |
| 20260905071957 | 82 | 6 | 4.0 | 6.0 | 0.00 | 0.00 | 0.00 | 87 | 1012.7 |
| 20260905071454 | 82 | 354 | 3.0 | 5.0 | 0.00 | 0.00 | 0.00 | 86 | 1012.7 |
| 20260905070954 | 82 | 351 | 3.0 | 5.0 | 0.00 | 0.00 | 0.00 | 86 | 1012.7 |
| 20260905070450 | 82 | 358 | 4.0 | 6.0 | 0.00 | 0.00 | 0.00 | 85 | 1012.7 |
| 20260905065949 | 82 | 359 | 4.0 | 5.0 | 0.00 | 0.00 | 0.00 | 86 | 1012.7 |
| 20260905065448 | 82 | 354 | 2.0 | 3.0 | 0.00 | 0.00 | 0.00 | 86 | 1012.7 |
| 20260905064944 | 82 | 359 | 3.0 | 3.0 | 0.00 | 0.00 | 0.00 | 86 | 1012.7 |
| 20260905064443 | 82 | 352 | 3.0 | 3.0 | 0.00 | 0.00 | 0.00 | 86 | 1012.7 |
| 20260905063938 | 83 | 353 | 2.0 | 2.0 | 0.00 | 0.00 | 0.00 | 86 | 1012.7 |
| 20260905063433 | 83 | 353 | 1.0 | 1.0 | 0.00 | 0.00 | 0.00 | 86 | 1013.0 |
| 20260905062930 | 83 | 353 | 1.0 | 1.0 | 0.00 | 0.00 | 0.00 | 85 | 1012.7 |
| 20260905062429 | 83 | 348 | 2.0 | 2.0 | 0.00 | 0.00 | 0.00 | 85 | 1013.0 |
| 20260905061925 | 83 | 357 | 3.0 | 3.0 | 0.00 | 0.00 | 0.00 | 85 | 1013.0 |
| 20260905061424 | 83 | 339 | 2.0 | 2.0 | 0.00 | 0.00 | 0.00 | 85 | 1012.7 |
| 20260905060924 | 83 | 347 | 2.0 | 3.0 | 0.00 | 0.00 | 0.00 | 85 | 1013.0 |
| 20260905060420 | 84 | 346 | 1.0 | 2.0 | 0.00 | 0.00 | 0.00 | 85 | 1013.0 |
| 20260905055919 | 84 | 354 | 1.0 | 1.0 | 0.00 | 0.00 | 0.00 | 85 | 1013.0 |
| 20260905055415 | 84 | 2 | 3.0 | 3.0 | 0.00 | 0.00 | 0.00 | 85 | 1013.0 |
| 20260905054914 | 84 | 353 | 1.0 | 2.0 | 0.00 | 0.00 | 0.00 | 84 | 1013.0 |
| 20260905054410 | 84 | 1 | 2.0 | 2.0 | 0.00 | 0.00 | 0.00 | 84 | 1013.0 |
| 20260905053909 | 84 | 9 | 3.0 | 3.0 | 0.00 | 0.00 | 0.00 | 84 | 1013.0 |
| 20260905053404 | 84 | 352 | 4.0 | 5.0 | 0.00 | 0.00 | 0.00 | 83 | 1013.0 |
| 20260905052900 | 84 | 344 | 4.0 | 5.0 | 0.00 | 0.00 | 0.00 | 83 | 1013.0 |
| 20260905052400 | 84 | 343 | 4.0 | 5.0 | 0.00 | 0.00 | 0.00 | 83 | 1013.3 |
| 20260905051859 | 84 | 357 | 2.0 | 2.0 | 0.00 | 0.00 | 0.00 | 85 | 1013.0 |
| 20260905051355 | 84 | 357 | 2.0 | 2.0 | 0.00 | 0.00 | 0.00 | 85 | 1013.3 |
| 20260905050852 | 83 | 357 | 2.0 | 2.0 | 0.00 | 0.00 | 0.00 | 86 | 1013.3 |
| 20260905050348 | 83 | 357 | 0.0 | 1.0 | 0.00 | 0.00 | 0.00 | 86 | 1013.3 |
| 20260905045848 | 84 | 357 | 0.0 | 0.0 | 0.00 | 0.00 | 0.00 | 86 | 1013.3 |
| 20260905045343 | 84 | 357 | 0.0 | 1.0 | 0.00 | 0.00 | 0.00 | 85 | 1013.0 |
| 20260905044839 | 84 | 357 | 2.0 | 2.0 | 0.00 | 0.00 | 0.00 | 86 | 1013.3 |
| 20260905044334 | 84 | 357 | 0.0 | 1.0 | 0.00 | 0.00 | 0.00 | 86 | 1013.3 |
| 20260905043832 | 84 | 357 | 0.0 | 0.0 | 0.00 | 0.00 | 0.00 | 86 | 1013.3 |
| 20260905043327 | 84 | 357 | 1.0 | 1.0 | 0.00 | 0.00 | 0.00 | 86 | 1013.3 |
| 20260905042823 | 84 | 357 | 0.0 | 1.0 | 0.00 | 0.00 | 0.00 | 86 | 1013.7 |
| 20260905042322 | 84 | 357 | 2.0 | 2.0 | 0.00 | 0.00 | 0.00 | 85 | 1013.3 |
| 20260905041817 | 84 | 358 | 2.0 | 2.0 | 0.00 | 0.00 | 0.00 | 86 | 1013.3 |
| 20260905041314 | 84 | 358 | 0.0 | 0.0 | 0.00 | 0.00 | 0.00 | 86 | 1013.3 |
| 20260905040808 | 83 | 358 | 0.0 | 1.0 | 0.00 | 0.00 | 0.00 | 87 | 1013.3 |
| 20260905040307 | 83 | 358 | 0.0 | 0.0 | 0.00 | 0.00 | 0.00 | 88 | 1013.7 |
| 20260905035801 | 83 | 358 | 0.0 | 0.0 | 0.00 | 0.00 | 0.00 | 88 | 1013.3 |
| 20260905035257 | 82 | 358 | 0.0 | 0.0 | 0.00 | 0.00 | 0.00 | 89 | 1013.7 |
| 20260905034754 | 82 | 358 | 0.0 | 0.0 | 0.00 | 0.00 | 0.00 | 89 | 1013.3 |
| 20260905034254 | 82 | 358 | 0.0 | 0.0 | 0.00 | 0.00 | 0.00 | 89 | 1013.7 |
| 20260905033753 | 82 | 358 | 0.0 | 0.0 | 0.00 | 0.00 | 0.00 | 90 | 1013.7 |
| 20260905033248 | 82 | 358 | 0.0 | 0.0 | 0.00 | 0.00 | 0.00 | 90 | 1013.7 |
| 20260905032748 | 82 | 358 | 0.0 | 0.0 | 0.00 | 0.00 | 0.00 | 90 | 1013.7 |
| 20260905032243 | 81 | 358 | 0.0 | 0.0 | 0.00 | 0.00 | 0.00 | 90 | 1013.7 |
| 20260905031738 | 82 | 358 | 0.0 | 1.0 | 0.00 | 0.00 | 0.00 | 89 | 1013.3 |
| 20260905031234 | 82 | 358 | 1.0 | 2.0 | 0.00 | 0.00 | 0.00 | 89 | 1013.7 |
| 20260905030729 | 82 | 358 | 0.0 | 1.0 | 0.00 | 0.00 | 0.00 | 89 | 1014.0 |
| 20260905030224 | 82 | 358 | 0.0 | 0.0 | 0.00 | 0.00 | 0.00 | 88 | 1013.7 |
| 20260905025719 | 82 | 358 | 0.0 | 0.0 | 0.00 | 0.00 | 0.00 | 88 | 1013.7 |
| 20260905025214 | 82 | 358 | 0.0 | 0.0 | 0.00 | 0.00 | 0.00 | 88 | 1013.7 |
| 20260905024710 | 82 | 358 | 0.0 | 0.0 | 0.00 | 0.00 | 0.00 | 87 | 1013.7 |
| 20260905024206 | 83 | 358 | 0.0 | 0.0 | 0.00 | 0.00 | 0.00 | 87 | 1013.3 |
| 20260905023701 | 83 | 358 | 0.0 | 0.0 | 0.00 | 0.00 | 0.00 | 86 | 1013.7 |
| 20260905023200 | 84 | 358 | 0.0 | 0.0 | 0.00 | 0.00 | 0.00 | 86 | 1013.3 |
| 20260905022659 | 84 | 358 | 1.0 | 1.0 | 0.00 | 0.00 | 0.00 | 85 | 1013.3 |
| 20260905022155 | 85 | 358 | 0.0 | 1.0 | 0.00 | 0.00 | 0.00 | 83 | 1013.3 |
| 20260905021654 | 86 | 358 | 0.0 | 0.0 | 0.00 | 0.00 | 0.00 | 81 | 1013.3 |
| 20260905021150 | 86 | 358 | 0.0 | 0.0 | 0.00 | 0.00 | 0.00 | 81 | 1013.7 |
| 20260905020645 | 86 | 358 | 0.0 | 0.0 | 0.00 | 0.00 | 0.00 | 81 | 1013.3 |
| 20260905020140 | 86 | 358 | 0.0 | 0.0 | 0.00 | 0.00 | 0.00 | 81 | 1013.0 |
| 20260905015638 | 86 | 358 | 1.0 | 2.0 | 0.00 | 0.00 | 0.00 | 81 | 1013.3 |
| 20260905015134 | 86 | 358 | 0.0 | 0.0 | 0.00 | 0.00 | 0.00 | 81 | 1013.0 |
| 20260905014632 | 86 | 358 | 0.0 | 1.0 | 0.00 | 0.00 | 0.00 | 81 | 1013.0 |
| 20260905014128 | 86 | 358 | 1.0 | 1.0 | 0.00 | 0.00 | 0.00 | 81 | 1012.7 |
| 20260905013625 | 86 | 358 | 0.0 | 0.0 | 0.00 | 0.00 | 0.00 | 81 | 1012.7 |
| 20260905013121 | 86 | 358 | 1.0 | 2.0 | 0.00 | 0.00 | 0.00 | 81 | 1012.7 |